Flag for U.S.A. Weather past 2 weeks in Duluth, Minnesota, U.S.A.

Now
39 °F

Clear.


Feels Like: 39 °F
Forecast: 35 / 62 °F
Wind: No wind

Location: Sky Harbor Airport

Current Time: Apr 28, 2015 at 2:13:29 AM

Latest Report: Apr 28, 2015 at 1:34 AM


Visibility: 10 mi

Pressure: 30.17 "Hg

Humidity: 81%

Dew point: 34 °F

Location of DuluthLocation

Historic Weather in Duluth — Graph

°F

Duluth temperature yesterday

Maximum temperature yesterday: 50 °F (at 12:33 PM)
Minimum temperature yesterday: 34 °F (at 3:13 AM)
Average temperature yesterday: 41 °F

Past Weeks' High & Low Weather Summary

 TemperatureHumidityPressure
High72 °F (Apr 17, 4:33 PM)100% (Apr 20, 3:33 AM)30.28 "Hg (Apr 20, 3:33 AM)
Low30 °F (Apr 22, 7:14 AM)10% (Apr 14, 3:53 PM)29.38 "Hg (Apr 20, 11:13 PM)
Average42 °F67%29.96 "Hg
* Reported Apr 13 1:13 AM — Apr 28 1:13 AM, Duluth, Weather by CustomWeather, © 2015

Note: Actual official high and low records may vary slightly from our data, if they occured in-between our weather recording intervals... More about our weather records

Advertising

Duluth weather history for previous 24 hours

 ConditionsComfort  
Time TempWeatherWind HumidityBarometerVisibility
1:13 AM
Tue, Apr 28
39 °FClear.No wind87%30.16 "Hg10 mi
12:53 AM41 °FClear.No wind76%30.17 "Hg10 mi
12:33 AM39 °FClear.No wind81%30.16 "Hg10 mi
12:14 AM39 °FClear.No wind81%30.17 "Hg10 mi
11:53 PM
Mon, Apr 27
41 °FClear.No wind81%30.16 "Hg10 mi
11:33 PM39 °FClear.No wind81%30.16 "Hg10 mi
11:14 PM39 °FClear.No wind81%30.17 "Hg10 mi
10:33 PM39 °FClear.No wind87%30.17 "Hg10 mi
10:13 PM39 °FClear.No wind87%30.17 "Hg10 mi
9:53 PM39 °FClear.No wind87%30.17 "Hg10 mi
9:34 PM41 °FClear.3 mph81%30.17 "Hg10 mi
9:13 PM41 °FClear.7 mph81%30.16 "Hg10 mi
8:53 PM41 °FSunny.7 mph81%30.16 "Hg10 mi
8:33 PM41 °FSunny.6 mph81%30.16 "Hg10 mi
8:14 PM41 °FSunny.5 mph81%30.16 "Hg10 mi
7:53 PM43 °FSunny.8 mph76%30.15 "Hg10 mi
7:33 PM43 °FSunny.7 mph76%30.16 "Hg10 mi
7:14 PM43 °FSunny.6 mph76%30.16 "Hg10 mi
6:53 PM43 °FSunny.6 mph76%30.16 "Hg10 mi
6:33 PM45 °FSunny.12 mph71%30.15 "Hg10 mi
6:14 PM46 °FSunny.12 mph62%30.15 "Hg10 mi
5:53 PM46 °FSunny.10 mph62%30.14 "Hg10 mi
5:34 PM46 °FSunny.3 mph57%30.14 "Hg10 mi
4:54 PM46 °FSunny.5 mph62%30.15 "Hg10 mi
4:14 PM48 °FSunny.6 mph54%30.16 "Hg10 mi
3:53 PM48 °FSunny.6 mph50%30.16 "Hg10 mi
3:34 PM46 °FSunny.7 mph62%30.16 "Hg10 mi
3:13 PM48 °FSunny.5 mph50%30.18 "Hg10 mi
2:54 PM48 °FSunny.5 mph46%30.19 "Hg10 mi
2:33 PM48 °FScattered clouds.3 mph58%30.19 "Hg10 mi
2:14 PM48 °FSunny.5 mph58%30.19 "Hg10 mi
1:53 PM48 °FSunny.3 mph54%30.20 "Hg10 mi
1:34 PM48 °FSunny.5 mph54%30.21 "Hg10 mi
1:13 PM46 °FSunny.6 mph53%30.22 "Hg10 mi
12:53 PM48 °FSunny.5 mph50%30.23 "Hg10 mi
12:33 PM50 °FSunny.No wind43%30.24 "Hg10 mi
12:13 PM48 °FSunny.3 mph50%30.24 "Hg10 mi
11:54 AM48 °FSunny.3 mph50%30.25 "Hg10 mi
11:33 AM45 °FSunny.5 mph66%30.25 "Hg10 mi
11:13 AM43 °FSunny.6 mph76%30.25 "Hg10 mi
10:54 AM46 °FSunny.5 mph66%30.25 "Hg10 mi
10:33 AM46 °FSunny.7 mph62%30.25 "Hg10 mi
10:13 AM48 °FSunny.6 mph58%30.25 "Hg10 mi
9:53 AM45 °FSunny.7 mph71%30.24 "Hg10 mi
9:34 AM45 °FSunny.No wind66%30.24 "Hg10 mi
9:13 AM45 °FSunny.No wind66%30.23 "Hg10 mi
8:54 AM43 °FSunny.No wind66%30.24 "Hg10 mi
8:33 AM39 °FSunny.No wind70%30.24 "Hg10 mi
8:13 AM37 °FSunny.No wind75%30.24 "Hg10 mi
7:54 AM37 °FSunny.3 mph75%30.24 "Hg10 mi
7:33 AM36 °FSunny.5 mph81%30.23 "Hg10 mi
7:13 AM34 °FSunny.5 mph81%30.23 "Hg10 mi
6:53 AM34 °FClear.5 mph81%30.23 "Hg10 mi
6:34 AM34 °FClear.5 mph81%30.23 "Hg10 mi
6:13 AM34 °FClear.5 mph81%30.23 "Hg10 mi
5:53 AM34 °FClear.7 mph81%30.23 "Hg10 mi
5:34 AM34 °FClear.6 mph81%30.23 "Hg10 mi
5:13 AM34 °FClear.6 mph81%30.23 "Hg10 mi
4:53 AM34 °FClear.5 mph81%30.22 "Hg10 mi
4:34 AM34 °FClear.5 mph81%30.22 "Hg10 mi
4:13 AM34 °FClear.No wind87%30.21 "Hg10 mi
3:53 AM34 °FClear.No wind87%30.22 "Hg10 mi
3:34 AM34 °FClear.3 mph87%30.21 "Hg10 mi
3:13 AM34 °FClear.No wind87%30.21 "Hg10 mi
2:53 AM36 °FClear.No wind81%30.20 "Hg10 mi
2:33 AM36 °FClear.No wind81%30.21 "Hg10 mi
2:13 AM36 °FClear.No wind87%30.21 "Hg10 mi
Weather by CustomWeather, © 2015

See weather overviewHow to use our weather pages